Change the Weather History Date:

Thursday, September 26, 2013

  Actual Average Record
Temperature  
Mean Temperature 65 °F -  
Max Temperature 75 °F 78 °F 93 °F (1970)
Min Temperature 55 °F 57 °F 36 °F (1949)
Growing Degree Days 15 (Base 50)    
Moisture  
Dew Point 56 °F    
Average Humidity 87    
Maximum Humidity 100    
Minimum Humidity 44    
Precipitation  
Precipitation 0.00 in - - ()
Sea Level Pressure  
Sea Level Pressure 30.01 in    
Wind  
Wind Speed 1 mph (ENE)    
Max Wind Speed 10 mph    
Max Gust Speed -    
Visibility 10 miles    
Events      
Averages and records for this station are not official NWS values.
T = Trace of Precipitation, MM = Missing Value Source: NWS Daily Summary

Daily Weather History Graph

Daily Weather History Graph

Search for Another Location

Airport or City:

Trip Planner

Search our weather history database for the weather conditions in past years. The results will help you decide how hot, cold, wet, or windy it might be!

Date:

Astronomy

Sep. 26, 2013 Rise Set
Actual Time 6:55 AM EDT 6:54 PM EDT
Civil Twilight 6:29 AM EDT 7:21 PM EDT
Nautical Twilight 5:58 AM EDT 7:51 PM EDT
Astronomical Twilight 5:26 AM EDT 8:23 PM EDT
Moon 11:53 PM EDT (9/26) 1:43 PM EDT (9/26)
Length of Visible Light 12h 51m
Length of Day
11h 58m
Waning Gibbous, 55% of the Moon is Illuminated
Sep 26
Waning Gibbous
Sep 26
Last Quarter
Oct 4
New
Oct 11
First Quarter
Oct 18
Full

Hourly Weather History & Observations

Time (EDT) Temp. Dew Point Humidity Pressure Visibility Wind Dir Wind Speed Gust Speed Precip Events Conditions
12:10 AM 57.7 °F 54.7 °F 90% 29.97 in 10.0 mi Calm Calm - N/A   Clear
12:30 AM 56.7 °F 55.8 °F 97% 29.98 in 10.0 mi Calm Calm - N/A   Clear
12:50 AM 56.5 °F 56.5 °F 100% 29.98 in 10.0 mi Calm Calm - N/A   Clear
1:10 AM 56.8 °F 56.8 °F 100% 29.97 in 10.0 mi Calm Calm - N/A   Clear
1:30 AM 56.5 °F 56.5 °F 100% 29.97 in 10.0 mi Calm Calm - N/A   Clear
1:50 AM 57.2 °F 57.2 °F 100% 29.97 in 10.0 mi Calm Calm - N/A   Clear
2:10 AM 57.2 °F 57.2 °F 100% 29.97 in 10.0 mi Calm Calm - N/A   Clear
2:30 AM 57.2 °F 57.2 °F 100% 29.96 in 10.0 mi Calm Calm - N/A   Clear
2:50 AM 56.5 °F 56.5 °F 100% 29.96 in 10.0 mi Calm Calm - N/A   Clear
3:10 AM 57.2 °F 57.2 °F 100% 29.96 in 10.0 mi Calm Calm - N/A   Clear
3:30 AM 57.0 °F 57.0 °F 100% 29.96 in 10.0 mi Calm Calm - N/A   Clear
3:50 AM 56.5 °F 56.5 °F 100% 29.96 in 10.0 mi Calm Calm - N/A   Clear
4:10 AM 56.8 °F 56.8 °F 100% 29.96 in 10.0 mi Calm Calm - N/A   Clear
4:30 AM 56.7 °F 56.7 °F 100% 29.96 in 10.0 mi Calm Calm - N/A   Clear
4:50 AM 55.4 °F 55.4 °F 100% 29.97 in 10.0 mi Calm Calm - N/A   Clear
5:10 AM 56.1 °F 56.1 °F 100% 29.96 in 10.0 mi Calm Calm - N/A   Clear
5:30 AM 56.3 °F 56.3 °F 100% 29.97 in 10.0 mi Calm Calm - N/A   Clear
5:45 AM 55.4 °F 55.4 °F 100% 29.97 in 7.0 mi NE 4.6 mph - N/A   Scattered Clouds
5:50 AM 56.5 °F 56.5 °F 100% 29.97 in 10.0 mi Calm Calm - N/A   Clear
6:10 AM 56.3 °F 56.3 °F 100% 29.98 in 10.0 mi Calm Calm - N/A   Clear
6:30 AM 56.3 °F 56.3 °F 100% 29.98 in 10.0 mi Calm Calm - N/A   Clear
6:46 AM 56.5 °F 56.5 °F 100% 29.98 in 10.0 mi Calm Calm - N/A   Clear
6:50 AM 57.2 °F 57.2 °F 100% 29.98 in 10.0 mi NE 4.6 mph - N/A   Mostly Cloudy
7:45 AM 57.2 °F 57.2 °F 100% 30.00 in 10.0 mi Calm Calm - N/A   Mostly Cloudy
8:53 AM 62.6 °F 62.6 °F 100% 30.02 in 10.0 mi Calm Calm - N/A   Mostly Cloudy
9:53 AM 68.0 °F 64.4 °F 88% 30.04 in 10.0 mi ENE 5.8 mph - N/A   Mostly Cloudy
10:53 AM 71.6 °F 57.2 °F 60% 30.04 in 10.0 mi ENE 9.2 mph - N/A   Mostly Cloudy
11:53 AM 73.4 °F 55.4 °F 53% 30.04 in 10.0 mi East 4.6 mph - N/A   Mostly Cloudy
12:53 PM 73.4 °F 55.4 °F 53% 30.04 in 10.0 mi East 5.8 mph - N/A   Mostly Cloudy
1:52 PM 75.2 °F 55.4 °F 50% 30.03 in 10.0 mi ENE 6.9 mph - N/A   Mostly Cloudy
2:50 PM 75.2 °F 53.6 °F 47% 30.03 in 10.0 mi North 10.4 mph - N/A   Mostly Cloudy
3:55 PM 75.2 °F 51.8 °F 44% 30.03 in 10.0 mi NE 9.2 mph - N/A   Mostly Cloudy
4:55 PM 73.4 °F 53.6 °F 50% 30.03 in 10.0 mi ENE 5.8 mph - N/A   Mostly Cloudy
5:55 PM 71.6 °F 53.6 °F 53% 30.05 in 10.0 mi Calm Calm - N/A   Scattered Clouds
6:55 PM 68.0 °F 53.6 °F 60% 30.06 in 10.0 mi Calm Calm - N/A   Scattered Clouds
7:55 PM 64.4 °F 55.4 °F 73% 30.07 in 10.0 mi Calm Calm - N/A   Clear
8:55 PM 62.6 °F 55.4 °F 77% 30.09 in 10.0 mi Calm Calm - N/A   Clear
9:52 PM 60.1 °F 54.7 °F 82% 30.11 in 10.0 mi Calm Calm - N/A   Clear
10:12 PM 61.2 °F 55.6 °F 82% 30.11 in 10.0 mi Calm Calm - N/A   Clear
10:32 PM 61.0 °F 56.7 °F 86% 30.11 in 10.0 mi Calm Calm - N/A   Clear
10:52 PM 59.9 °F 56.3 °F 88% 30.11 in 10.0 mi Calm Calm - N/A   Clear
11:12 PM 59.9 °F 58.3 °F 94% 30.11 in 10.0 mi Calm Calm - N/A   Clear
11:32 PM 60.1 °F 58.1 °F 93% 30.11 in 10.0 mi Calm Calm - N/A   Clear
11:52 PM 59.9 °F 59.4 °F 98% 30.11 in 10.0 mi Calm Calm - N/A   Clear